This is the latest recevied weather packets stored in our database for station/object SP1BMW-13. If no packets are shown the sender has not sent any weather packets the latest 10 day(s).
| Time | Temp. | Humidity | Pressure | Rain* | Wind** | Luminosity | Snow |
|---|---|---|---|---|---|---|---|
| 1777563915 | 18.33° C | 36% | 1028 hPa | 0 mm | 0.45 m/s, 45° | 251 W/m² | - |
| 1777563855 | 18.33° C | 35% | 1028 hPa | 0 mm | 0 m/s | 249 W/m² | - |
| 1777563796 | 18.33° C | 34% | 1027.9 hPa | 0 mm | 0.89 m/s, 38° | 249 W/m² | - |
| 1777563735 | 18.33° C | 34% | 1027.8 hPa | 0 mm | 0.45 m/s, 44° | 253 W/m² | - |
| 1777563675 | 18.33° C | 34% | 1028.1 hPa | 0 mm | 0.45 m/s, 305° | 242 W/m² | - |
| 1777563615 | 18.33° C | 34% | 1027.8 hPa | 0 mm | 0.89 m/s, 31° | 235 W/m² | - |
| 1777563555 | 18.33° C | 35% | 1027.8 hPa | 0 mm | 0.45 m/s, 42° | 231 W/m² | - |
| 1777563496 | 18.33° C | 34% | 1027.8 hPa | 0 mm | 0.89 m/s, 58° | 240 W/m² | - |
| 1777563436 | 18.33° C | 35% | 1027.9 hPa | 0 mm | 0 m/s | 241 W/m² | - |
| 1777563375 | 18.33° C | 34% | 1027.8 hPa | 0 mm | 0.89 m/s, 43° | 241 W/m² | - |
| 1777563315 | 18.33° C | 34% | 1028.1 hPa | 0 mm | 0.89 m/s, 29° | 252 W/m² | - |
| 1777563255 | 18.33° C | 35% | 1027.8 hPa | 0 mm | 1.34 m/s, 38° | 245 W/m² | - |
| 1777563196 | 18.33° C | 35% | 1028 hPa | 0 mm | 1.34 m/s, 10° | 268 W/m² | - |
| 1777563136 | 18.89° C | 34% | 1028 hPa | 0 mm | 1.79 m/s, 64° | 285 W/m² | - |
| 1777563076 | 18.89° C | 34% | 1028.2 hPa | 0 mm | 2.68 m/s, 41° | 287 W/m² | - |
| 1777563016 | 18.89° C | 33% | 1028.1 hPa | 0 mm | 1.79 m/s, 45° | 291 W/m² | - |
| 1777562956 | 18.89° C | 34% | 1028 hPa | 0 mm | 0.89 m/s, 53° | 293 W/m² | - |
| 1777562896 | 18.89° C | 34% | 1028 hPa | 0 mm | 1.34 m/s, 13° | 294 W/m² | - |
| 1777562836 | 18.89° C | 34% | 1028.1 hPa | 0 mm | 1.79 m/s, 334° | 293 W/m² | - |
| 1777562776 | 18.89° C | 34% | 1028.1 hPa | 0 mm | 0 m/s | 282 W/m² | - |
| 1777562717 | 18.89° C | 34% | 1027.9 hPa | 0 mm | 0.45 m/s, 330° | 294 W/m² | - |
| 1777562656 | 18.89° C | 33% | 1028 hPa | 0 mm | 2.68 m/s, 316° | 294 W/m² | - |
| 1777562596 | 19.44° C | 35% | 1028 hPa | 0 mm | 1.34 m/s, 30° | 298 W/m² | - |
| 1777562536 | 19.44° C | 34% | 1028.1 hPa | 0 mm | 1.79 m/s, 326° | 303 W/m² | - |
| 1777562476 | 18.89° C | 35% | 1028.2 hPa | 0 mm | 1.34 m/s, 304° | 310 W/m² | - |
* Rain latest hour (hover to see other rain measurements)
** Current wind speed in m/s (hover to see current wind gust speed)